Location: Unspecified
(0.0000°N, 0.0000°E)
Time: 07:38:42
(UTC+00:00)

Kosmos-648 - Pass Details

Date: 08 July 2022
Orbit: 1437 x 1489 km, 74.0° (Epoch: 16 August)

Event Time Altitude Azimuth Distance (km) Brightness Sun altitude
Rises 21:09:43 0° 319° (NW) 4,604 ? -41.8°
Reaches altitude 10° 21:13:25 10° 306° (NW) 3,625 ? -42.6°
Maximum altitude 21:19:51 23° 258° (WSW) 2,758 ? -44.0°
Enters shadow 21:23:20 18° 228° (SW) 3,033 ? -44.7°
